Regional Weather Roundup
Issued by NWS

Home | Current Version | Previous Version | Text Only | Print | Product List | Glossary On
Versions: 1 2 3 4 5 6 7 8 9 10 11 12 13 14 15 16 17 18 19 20 21 22 23 24 25 26 27
000
ASUS45 KBOI 200810
RWRID

IDAHO REGIONAL WEATHER ROUNDUP
NATIONAL WEATHER SERVICE BOISE ID
200 AM MDT FRI APR 20 2018

NOTE: "FAIR" INDICATES FEW OR NO CLOUDS BELOW 12000 FEET
WITH NO SIGNIFICANT WEATHER AND/OR OBSTRUCTIONS TO VISIBILITY

IDZ012-014-200900-
SOUTHWEST IDAHO


CITY           SKY/WX    TMP DP  RH WIND       PRES   REMARKS
BOISE          CLEAR     49  29  46 NW12      30.01R
CALDWELL       CLEAR     49  31  49 W18G28    30.05R
MOUNTAIN HOME  CLEAR     48  29  48 NW24G32   29.97R
$$

IDZ016-017-200900-
SOUTHCENTRAL IDAHO


CITY           SKY/WX    TMP DP  RH WIND       PRES   REMARKS
BURLEY         CLOUDY    43  32  65 W8        29.94R
JEROME         CLEAR     42  31  64 SW5       29.96R
TWIN FALLS     CLEAR     41  31  67 SW13      29.96R
$$

IDZ019>023-200900-
SOUTHEAST IDAHO


CITY           SKY/WX    TMP DP  RH WIND       PRES   REMARKS
IDAHO FALLS    CLEAR     43  28  55 N16       29.94R
POCATELLO      PTCLDY    45  27  49 NE7       29.92R
REXBURG        CLEAR     44  27  51 NE8       29.93S
$$

IDZ006-010-011-018-031-032-200900-
CENTRAL IDAHO MOUNTAINS


CITY           SKY/WX    TMP DP  RH WIND       PRES   REMARKS
MCCALL         CLEAR     41  24  51 N12       30.11R
HAILEY         CLEAR     45  27  49 NW9       30.01R
STANLEY          N/A     28  22  78 S3        30.10R
SALMON         CLEAR     42  25  50 S3        30.07R
CHALLIS        CLEAR     44  20  38 N9        30.06R
$$

IDZ002-004-006-007-026-200900-
NORTHERN IDAHO


CITY           SKY/WX    TMP DP  RH WIND       PRES   REMARKS
LEWISTON       CLEAR     48  33  56 S7        30.17S
LOWELL           N/A     41  37  86 CALM      30.21R
COEUR D`ALENE  CLEAR     40  32  73 E5        30.16R
MULLAN PASS    CLEAR     33  23  66 NW7       30.15S WCI  27
$$




USA.gov is the U.S. government's official web portal to all federal, state and local government web resources and services.